| time (UTC) | temp F | wind direction | speed MPH | gust MPH | rain 1hr in | rain 24hr in | rain mn in | humidity % | barometer mb |
| 20260831073029 | 71 | 182 | 0.0 | 0.0 | 0.00 | 0.00 | 0.00 | 1014.2 | |
| 20260831072523 | 71 | 182 | 0.0 | 0.0 | 0.00 | 0.00 | 0.00 | 1014.2 | |
| 20260831072027 | 71 | 182 | 0.0 | 0.0 | 0.00 | 0.00 | 0.00 | 1014.2 | |
| 20260831071543 | 72 | 182 | 0.0 | 0.0 | 0.00 | 0.00 | 0.00 | 1014.2 | |
| 20260831071025 | 72 | 182 | 0.0 | 0.0 | 0.00 | 0.00 | 0.00 | 1014.2 | |
| 20260831070530 | 72 | 182 | 0.0 | 0.0 | 0.00 | 0.00 | 0.00 | 1014.2 | |
| 20260831070022 | 72 | 182 | 0.0 | 0.0 | 0.00 | 0.00 | 0.00 | 1014.2 | |
| 20260831065522 | 72 | 182 | 0.0 | 0.0 | 0.00 | 0.00 | 0.00 | 1014.2 | |
| 20260831065021 | 72 | 182 | 0.0 | 0.0 | 0.00 | 0.00 | 0.00 | 1014.2 | |
| 20260831064521 | 72 | 182 | 0.0 | 0.0 | 0.00 | 0.00 | 0.00 | 1014.2 | |
| 20260831064023 | 72 | 182 | 0.0 | 0.0 | 0.00 | 0.00 | 0.00 | 1014.2 | |
| 20260831063522 | 72 | 182 | 0.0 | 0.0 | 0.00 | 0.00 | 0.00 | 1014.2 | |
| 20260831063024 | 72 | 182 | 0.0 | 0.0 | 0.00 | 0.00 | 0.00 | 1014.2 | |
| 20260831062522 | 72 | 182 | 0.0 | 0.0 | 0.00 | 0.00 | 0.00 | 1014.2 | |
| 20260831062043 | 72 | 182 | 0.0 | 0.0 | 0.00 | 0.00 | 0.00 | 1014.2 | |
| 20260831061522 | 72 | 182 | 0.0 | 0.0 | 0.00 | 0.00 | 0.00 | 1014.2 | |
| 20260831061022 | 72 | 182 | 0.0 | 0.0 | 0.00 | 0.00 | 0.00 | 1014.2 | |
| 20260831060521 | 72 | 182 | 0.0 | 0.0 | 0.00 | 0.00 | 0.00 | 1014.2 | |
| 20260831060043 | 72 | 182 | 0.0 | 0.0 | 0.00 | 0.00 | 0.00 | 1014.2 | |
| 20260831055543 | 72 | 182 | 0.0 | 0.0 | 0.00 | 0.00 | 0.00 | 1014.2 | |
| 20260831055022 | 72 | 182 | 0.0 | 0.0 | 0.00 | 0.00 | 0.00 | 1014.2 | |
| 20260831054522 | 72 | 182 | 0.0 | 0.0 | 0.00 | 0.00 | 0.00 | 1014.2 | |
| 20260831054021 | 72 | 182 | 0.0 | 0.0 | 0.00 | 0.00 | 0.00 | 1014.2 | |
| 20260831053543 | 72 | 182 | 0.0 | 0.0 | 0.00 | 0.00 | 0.00 | 1014.2 | |
| 20260831053023 | 72 | 182 | 0.0 | 0.0 | 0.00 | 0.00 | 0.00 | 1014.2 | |
| 20260831052522 | 72 | 182 | 0.0 | 0.0 | 0.00 | 0.00 | 0.00 | 1014.2 | |
| 20260831052022 | 72 | 186 | 0.0 | 0.0 | 0.00 | 0.00 | 0.00 | 1014.2 | |
| 20260831051522 | 72 | 199 | 0.0 | 0.0 | 0.00 | 0.00 | 0.00 | 1014.2 | |
| 20260831051027 | 72 | 199 | 0.0 | 0.0 | 0.00 | 0.00 | 0.00 | 1014.2 | |
| 20260831050522 | 72 | 199 | 0.0 | 0.0 | 0.00 | 0.00 | 0.00 | 1014.2 | |
| 20260831050023 | 72 | 199 | 0.0 | 0.0 | 0.00 | 0.00 | 0.00 | 1014.2 | |
| 20260831045523 | 72 | 199 | 0.0 | 0.0 | 0.00 | 0.00 | 0.00 | 1014.2 | |
| 20260831045025 | 72 | 199 | 0.0 | 0.0 | 0.00 | 0.00 | 0.00 | 1014.2 | |
| 20260831044522 | 72 | 199 | 0.0 | 0.0 | 0.00 | 0.00 | 0.00 | 1014.2 | |
| 20260831044022 | 72 | 199 | 0.0 | 0.0 | 0.00 | 0.00 | 0.00 | 1014.2 | |
| 20260831043522 | 72 | 199 | 0.0 | 0.0 | 0.00 | 0.00 | 0.00 | 1014.2 | |
| 20260831043023 | 72 | 199 | 0.0 | 0.0 | 0.00 | 0.00 | 0.00 | 1014.2 | |
| 20260831042542 | 72 | 199 | 0.0 | 0.0 | 0.00 | 0.00 | 0.00 | 1014.2 | |
| 20260831042025 | 72 | 199 | 0.0 | 0.0 | 0.00 | 0.00 | 0.00 | 1015.2 | |
| 20260831041522 | 73 | 199 | 0.0 | 0.0 | 0.00 | 0.00 | 0.00 | 1015.2 | |
| 20260831041023 | 72 | 199 | 0.0 | 0.0 | 0.00 | 0.00 | 0.00 | 1015.2 | |
| 20260831040543 | 72 | 199 | 0.0 | 0.0 | 0.00 | 0.00 | 0.00 | 1014.2 | |
| 20260831040024 | 72 | 199 | 0.0 | 0.0 | 0.00 | 0.00 | 0.00 | 1014.2 | |
| 20260831035523 | 72 | 202 | 0.0 | 0.0 | 0.00 | 0.00 | 0.00 | 1014.2 | |
| 20260831035027 | 73 | 202 | 0.0 | 0.0 | 0.00 | 0.00 | 0.00 | 1014.2 | |
| 20260831034522 | 73 | 202 | 0.0 | 0.0 | 0.00 | 0.00 | 0.00 | 1014.2 | |
| 20260831034025 | 73 | 202 | 0.0 | 0.0 | 0.00 | 0.00 | 0.00 | 1014.2 | |
| 20260831033523 | 73 | 202 | 0.0 | 0.0 | 0.00 | 0.00 | 0.00 | 1015.2 | |
| 20260831033026 | 73 | 184 | 0.0 | 0.0 | 0.00 | 0.00 | 0.00 | 1015.2 | |
| 20260831032529 | 73 | 174 | 0.0 | 0.0 | 0.00 | 0.00 | 0.00 | 1015.2 | |
| 20260831032022 | 73 | 174 | 0.0 | 0.0 | 0.00 | 0.00 | 0.00 | 1015.2 | |
| 20260831031522 | 73 | 191 | 0.0 | 3.0 | 0.00 | 0.00 | 0.00 | 1015.2 | |
| 20260831031022 | 73 | 223 | 3.0 | 2.0 | 0.00 | 0.00 | 0.00 | 1015.2 | |
| 20260831030522 | 73 | 211 | 0.0 | 3.0 | 0.00 | 0.00 | 0.00 | 1015.2 | |
| 20260831030023 | 73 | 237 | 0.0 | 2.0 | 0.00 | 0.00 | 0.00 | 1015.2 | |
| 20260831025522 | 73 | 200 | 0.0 | 3.0 | 0.00 | 0.00 | 0.00 | 1015.2 | |
| 20260831025043 | 73 | 190 | 0.0 | 4.0 | 0.00 | 0.00 | 0.00 | 1015.2 | |
| 20260831024522 | 73 | 176 | 0.0 | 3.0 | 0.00 | 0.00 | 0.00 | 1015.2 | |
| 20260831024022 | 73 | 232 | 0.0 | 0.0 | 0.00 | 0.00 | 0.00 | 1015.2 | |
| 20260831023543 | 73 | 235 | 0.0 | 4.0 | 0.00 | 0.00 | 0.00 | 1015.2 | |
| 20260831023023 | 72 | 204 | 0.0 | 0.0 | 0.00 | 0.00 | 0.00 | 1015.2 | |
| 20260831022544 | 73 | 187 | 0.0 | 0.0 | 0.00 | 0.00 | 0.00 | 1015.2 | |
| 20260831022022 | 72 | 211 | 0.0 | 3.0 | 0.00 | 0.00 | 0.00 | 1015.2 | |
| 20260831021522 | 73 | 236 | 0.0 | 0.0 | 0.00 | 0.00 | 0.00 | 1015.2 | |
| 20260831021022 | 73 | 194 | 0.0 | 0.0 | 0.00 | 0.00 | 0.00 | 1015.2 | |
| 20260831020523 | 73 | 159 | 0.0 | 0.0 | 0.00 | 0.00 | 0.00 | 1015.2 | |
| 20260831020027 | 72 | 195 | 0.0 | 0.0 | 0.00 | 0.00 | 0.00 | 1015.2 | |
| 20260831015522 | 72 | 169 | 0.0 | 0.0 | 0.00 | 0.00 | 0.00 | 1015.2 | |
| 20260831015022 | 72 | 180 | 2.0 | 0.0 | 0.00 | 0.00 | 0.00 | 1015.2 | |
| 20260831014522 | 72 | 208 | 0.0 | 0.0 | 0.00 | 0.00 | 0.00 | 1015.2 | |
| 20260831014022 | 72 | 203 | 0.0 | 2.0 | 0.00 | 0.00 | 0.00 | 1015.2 | |
| 20260831013527 | 72 | 205 | 0.0 | 0.0 | 0.00 | 0.00 | 0.00 | 1015.2 | |
| 20260831013023 | 72 | 197 | 0.0 | 0.0 | 0.00 | 0.00 | 0.00 | 1015.2 | |
| 20260831012522 | 72 | 193 | 0.0 | 0.0 | 0.00 | 0.00 | 0.00 | 1015.2 | |
| 20260831012025 | 72 | 179 | 0.0 | 0.0 | 0.00 | 0.00 | 0.00 | 1015.2 | |
| 20260831011522 | 72 | 230 | 0.0 | 0.0 | 0.00 | 0.00 | 0.00 | 1015.2 | |
| 20260831011023 | 72 | 204 | 0.0 | 0.0 | 0.00 | 0.00 | 0.00 | 1015.2 | |
| 20260831010522 | 72 | 193 | 0.0 | 0.0 | 0.00 | 0.00 | 0.00 | 1015.2 | |
| 20260831010035 | 72 | 208 | 0.0 | 0.0 | 0.00 | 0.00 | 0.00 | 1015.2 | |
| 20260831005523 | 72 | 171 | 0.0 | 0.0 | 0.00 | 0.00 | 0.00 | 1015.2 | |
| 20260831005033 | 72 | 172 | 0.0 | 0.0 | 0.00 | 0.00 | 0.00 | 1015.2 | |
| 20260831004522 | 72 | 197 | 0.0 | 0.0 | 0.00 | 0.00 | 0.00 | 1015.2 | |
| 20260831004024 | 72 | 192 | 0.0 | 0.0 | 0.00 | 0.00 | 0.00 | 1015.2 | |
| 20260831003522 | 72 | 165 | 0.0 | 0.0 | 0.00 | 0.00 | 0.00 | 1015.2 | |
| 20260831003029 | 72 | 171 | 0.0 | 0.0 | 0.00 | 0.00 | 0.00 | 1015.2 | |
| 20260831002522 | 72 | 171 | 0.0 | 4.0 | 0.00 | 0.00 | 0.00 | 1015.2 | |
| 20260831002044 | 72 | 203 | 0.0 | 0.0 | 0.00 | 0.00 | 0.00 | 1015.2 | |
| 20260831001523 | 72 | 204 | 0.0 | 0.0 | 0.00 | 0.00 | 0.00 | 1015.2 | |
| 20260831001023 | 72 | 219 | 0.0 | 3.0 | 0.00 | 0.00 | 0.00 | 1015.2 | |
| 20260831000521 | 72 | 202 | 0.0 | 2.0 | 0.00 | 0.00 | 0.00 | 1015.2 | |
| 20260831000029 | 72 | 175 | 0.0 | 0.0 | 0.00 | 0.00 | 0.00 | 1015.2 | |
| 20260830235521 | 72 | 184 | 0.0 | 2.0 | 0.00 | 0.00 | 0.00 | 1015.2 | |
| 20260830235022 | 72 | 189 | 0.0 | 0.0 | 0.00 | 0.00 | 0.00 | 1014.2 | |
| 20260830234521 | 72 | 221 | 0.0 | 0.0 | 0.00 | 0.00 | 0.00 | 1014.2 | |
| 20260830234022 | 73 | 181 | 0.0 | 0.0 | 0.00 | 0.00 | 0.00 | 1014.2 | |
| 20260830233523 | 73 | 210 | 0.0 | 0.0 | 0.00 | 0.00 | 0.00 | 1015.2 | |
| 20260830233024 | 73 | 198 | 0.0 | 0.0 | 0.00 | 0.00 | 0.00 | 1015.2 | |
| 20260830232523 | 73 | 190 | 0.0 | 2.0 | 0.00 | 0.00 | 0.00 | 1015.2 | |
| 20260830232023 | 73 | 168 | 0.0 | 0.0 | 0.00 | 0.00 | 0.00 | 1015.2 | |
| 20260830231522 | 73 | 168 | 0.0 | 0.0 | 0.00 | 0.00 | 0.00 | 1015.2 | |
| 20260830231022 | 73 | 193 | 0.0 | 0.0 | 0.00 | 0.00 | 0.00 | 1015.2 | |
| 20260830230523 | 73 | 225 | 0.0 | 0.0 | 0.00 | 0.00 | 0.00 | 1015.2 | |
| 20260830230022 | 73 | 170 | 0.0 | 0.0 | 0.00 | 0.00 | 0.00 | 1015.2 | |
| 20260830225523 | 73 | 171 | 0.0 | 0.0 | 0.00 | 0.00 | 0.00 | 1015.2 | |
| 20260830225023 | 73 | 187 | 0.0 | 0.0 | 0.00 | 0.00 | 0.00 | 1015.2 | |
| 20260830224523 | 73 | 211 | 0.0 | 0.0 | 0.00 | 0.00 | 0.00 | 1015.2 | |
| 20260830224022 | 73 | 183 | 2.0 | 0.0 | 0.00 | 0.00 | 0.00 | 1015.2 | |
| 20260830223522 | 73 | 197 | 0.0 | 4.0 | 0.00 | 0.00 | 0.00 | 1015.2 | |
| 20260830223023 | 73 | 233 | 0.0 | 0.0 | 0.00 | 0.00 | 0.00 | 1015.2 | |
| 20260830222522 | 73 | 204 | 0.0 | 2.0 | 0.00 | 0.00 | 0.00 | 1015.2 | |
| 20260830222022 | 74 | 202 | 0.0 | 0.0 | 0.00 | 0.00 | 0.00 | 1015.2 | |
| 20260830221522 | 74 | 180 | 0.0 | 0.0 | 0.00 | 0.00 | 0.00 | 1015.2 | |
| 20260830221043 | 74 | 222 | 2.0 | 0.0 | 0.00 | 0.00 | 0.00 | 1015.2 | |
| 20260830220522 | 74 | 224 | 3.0 | 3.0 | 0.00 | 0.00 | 0.00 | 1015.2 | |
| 20260830220027 | 74 | 223 | 2.0 | 6.0 | 0.00 | 0.00 | 0.00 | 1015.2 | |
| 20260830215522 | 74 | 207 | 3.0 | 4.0 | 0.00 | 0.00 | 0.00 | 1015.2 | |
| 20260830215025 | 74 | 176 | 2.0 | 2.0 | 0.00 | 0.00 | 0.00 | 1015.2 | |
| 20260830214531 | 75 | 197 | 2.0 | 4.0 | 0.00 | 0.00 | 0.00 | 1015.2 | |
| 20260830214021 | 75 | 189 | 3.0 | 3.0 | 0.00 | 0.00 | 0.00 | 1015.2 | |
| 20260830213545 | 75 | 178 | 2.0 | 0.0 | 0.00 | 0.00 | 0.00 | 1015.2 | |
| 20260830213056 | 75 | 189 | 0.0 | 0.0 | 0.00 | 0.00 | 0.00 | 1015.2 | |
| 20260830212525 | 75 | 194 | 3.0 | 5.0 | 0.00 | 0.00 | 0.00 | 1015.2 | |
| 20260830212031 | 75 | 173 | 4.0 | 4.0 | 0.00 | 0.00 | 0.00 | 1015.2 | |
| 20260830211523 | 75 | 224 | 0.0 | 4.0 | 0.00 | 0.00 | 0.00 | 1015.2 | |
| 20260830211023 | 76 | 173 | 4.0 | 3.0 | 0.00 | 0.00 | 0.00 | 1015.2 | |
| 20260830210522 | 76 | 195 | 4.0 | 0.0 | 0.00 | 0.00 | 0.00 | 1015.2 | |
| 20260830210023 | 76 | 141 | 0.0 | 3.0 | 0.00 | 0.00 | 0.00 | 1015.2 | |
| 20260830205535 | 76 | 159 | 2.0 | 5.0 | 0.00 | 0.00 | 0.00 | 1015.2 | |
| 20260830205023 | 76 | 187 | 0.0 | 0.0 | 0.00 | 0.00 | 0.00 | 1015.2 | |
| 20260830204527 | 76 | 170 | 0.0 | 3.0 | 0.00 | 0.00 | 0.00 | 1015.2 | |
| 20260830204025 | 76 | 175 | 0.0 | 0.0 | 0.00 | 0.00 | 0.00 | 1015.2 | |
| 20260830203522 | 76 | 193 | 0.0 | 0.0 | 0.00 | 0.00 | 0.00 | 1016.2 | |
| 20260830203023 | 76 | 193 | 0.0 | 0.0 | 0.00 | 0.00 | 0.00 | 1016.2 | |
| 20260830202522 | 76 | 193 | 0.0 | 0.0 | 0.00 | 0.00 | 0.00 | 1016.2 | |
| 20260830202023 | 76 | 193 | 0.0 | 2.0 | 0.00 | 0.00 | 0.00 | 1015.2 | |
| 20260830201522 | 76 | 184 | 3.0 | 4.0 | 0.00 | 0.00 | 0.00 | 1015.2 | |
| 20260830201023 | 76 | 204 | 2.0 | 3.0 | 0.00 | 0.00 | 0.00 | 1015.2 | |
| 20260830200523 | 76 | 205 | 5.0 | 5.0 | 0.00 | 0.00 | 0.00 | 1015.2 | |
| 20260830200044 | 75 | 180 | 0.0 | 6.0 | 0.00 | 0.00 | 0.00 | 1015.2 | |
| 20260830195522 | 75 | 232 | 3.0 | 0.0 | 0.00 | 0.00 | 0.00 | 1015.2 | |
| 20260830195022 | 75 | 191 | 0.0 | 3.0 | 0.00 | 0.00 | 0.00 | 1015.2 | |
| 20260830194523 | 75 | 207 | 0.0 | 0.0 | 0.00 | 0.00 | 0.00 | 1015.2 | |
| 20260830194022 | 75 | 230 | 0.0 | 3.0 | 0.00 | 0.00 | 0.00 | 1015.2 | |
| 20260830193523 | 75 | 222 | 0.0 | 0.0 | 0.00 | 0.00 | 0.00 | 1015.2 | |
| 20260830193023 | 75 | 237 | 0.0 | 0.0 | 0.00 | 0.00 | 0.00 | 1015.2 | |
| 20260830192522 | 75 | 242 | 0.0 | 0.0 | 0.00 | 0.00 | 0.00 | 1015.2 | |
| 20260830192022 | 75 | 183 | 2.0 | 0.0 | 0.00 | 0.00 | 0.00 | 1015.2 | |
| 20260830191543 | 75 | 198 | 3.0 | 3.0 | 0.00 | 0.00 | 0.00 | 1015.2 | |
| 20260830191023 | 76 | 167 | 0.0 | 0.0 | 0.00 | 0.00 | 0.00 | 1015.2 | |
| 20260830190523 | 76 | 197 | 2.0 | 2.0 | 0.00 | 0.00 | 0.00 | 1015.2 | |
| 20260830190023 | 76 | 209 | 0.0 | 0.0 | 0.00 | 0.00 | 0.00 | 1015.2 | |
| 20260830185523 | 76 | 251 | 0.0 | 2.0 | 0.00 | 0.00 | 0.00 | 1015.2 | |
| 20260830185022 | 76 | 212 | 0.0 | 0.0 | 0.00 | 0.00 | 0.00 | 1016.2 | |
| 20260830184522 | 77 | 224 | 3.0 | 0.0 | 0.00 | 0.00 | 0.00 | 1016.2 | |
| 20260830184022 | 78 | 226 | 4.0 | 3.0 | 0.00 | 0.00 | 0.00 | 1016.2 | |
| 20260830183543 | 78 | 237 | 3.0 | 3.0 | 0.00 | 0.00 | 0.00 | 1016.2 | |
| 20260830183022 | 78 | 229 | 0.0 | 3.0 | 0.00 | 0.00 | 0.00 | 1016.2 | |
| 20260830182549 | 79 | 332 | 0.0 | 0.0 | 0.00 | 0.00 | 0.00 | 1016.2 | |
| 20260830182025 | 79 | 345 | 2.0 | 3.0 | 0.00 | 0.00 | 0.00 | 1014.2 | |
| 20260830181523 | 80 | 210 | 0.0 | 0.0 | 0.00 | 0.00 | 0.00 | 1014.2 | |
| 20260830181023 | 80 | 248 | 4.0 | 3.0 | 0.00 | 0.00 | 0.00 | 1014.2 | |
| 20260830180527 | 81 | 196 | 4.0 | 6.0 | 0.00 | 0.00 | 0.00 | 1014.2 | |
| 20260830180024 | 82 | 227 | 3.0 | 4.0 | 0.00 | 0.00 | 0.00 | 1014.2 | |
| 20260830175522 | 83 | 256 | 4.0 | 7.0 | 0.00 | 0.00 | 0.00 | 1014.2 | |
| 20260830175022 | 84 | 158 | 4.0 | 2.0 | 0.00 | 0.00 | 0.00 | 1014.2 | |
| 20260830174544 | 83 | 211 | 4.0 | 4.0 | 0.00 | 0.00 | 0.00 | 1014.2 | |
| 20260830174027 | 82 | 178 | 3.0 | 4.0 | 0.00 | 0.00 | 0.00 | 1014.2 | |
| 20260830173523 | 81 | 171 | 4.0 | 8.0 | 0.00 | 0.00 | 0.00 | 1014.2 | |
| 20260830173029 | 81 | 194 | 4.0 | 3.0 | 0.00 | 0.00 | 0.00 | 1014.2 | |
| 20260830172530 | 80 | 218 | 4.0 | 3.0 | 0.00 | 0.00 | 0.00 | 1014.2 | |
| 20260830172022 | 80 | 195 | 3.0 | 4.0 | 0.00 | 0.00 | 0.00 | 1014.2 | |
| 20260830171524 | 81 | 146 | 4.0 | 5.0 | 0.00 | 0.00 | 0.00 | 1014.2 | |
| 20260830171025 | 81 | 183 | 5.0 | 4.0 | 0.00 | 0.00 | 0.00 | 1014.2 | |
| 20260830170523 | 81 | 218 | 5.0 | 6.0 | 0.00 | 0.00 | 0.00 | 1014.2 | |
| 20260830170022 | 81 | 199 | 5.0 | 3.0 | 0.00 | 0.00 | 0.00 | 1014.2 | |
| 20260830165522 | 81 | 203 | 5.0 | 5.0 | 0.00 | 0.00 | 0.00 | 1014.2 | |
| 20260830165027 | 82 | 206 | 4.0 | 5.0 | 0.00 | 0.00 | 0.00 | 1014.2 | |
| 20260830164543 | 82 | 203 | 3.0 | 0.0 | 0.00 | 0.00 | 0.00 | 1014.2 | |
| 20260830164023 | 82 | 180 | 6.0 | 6.0 | 0.00 | 0.00 | 0.00 | 1014.2 | |
| 20260830163523 | 82 | 175 | 5.0 | 11.0 | 0.00 | 0.00 | 0.00 | 1014.2 | |
| 20260830163024 | 82 | 209 | 3.0 | 6.0 | 0.00 | 0.00 | 0.00 | 1014.2 | |
| 20260830162522 | 82 | 185 | 7.0 | 4.0 | 0.00 | 0.00 | 0.00 | 1014.2 | |
| 20260830162023 | 82 | 184 | 6.0 | 4.0 | 0.00 | 0.00 | 0.00 | 1014.2 | |
| 20260830161521 | 81 | 162 | 3.0 | 6.0 | 0.00 | 0.00 | 0.00 | 1014.2 | |
| 20260830161023 | 81 | 199 | 4.0 | 5.0 | 0.00 | 0.00 | 0.00 | 1014.2 | |
| 20260830160522 | 81 | 160 | 7.0 | 6.0 | 0.00 | 0.00 | 0.00 | 1014.2 | |
| 20260830160023 | 81 | 166 | 0.0 | 3.0 | 0.00 | 0.00 | 0.00 | 1014.2 | |
| 20260830155522 | 81 | 192 | 5.0 | 4.0 | 0.00 | 0.00 | 0.00 | 1014.2 | |
| 20260830155022 | 80 | 173 | 4.0 | 7.0 | 0.00 | 0.00 | 0.00 | 1014.2 | |
| 20260830154523 | 80 | 233 | 5.0 | 6.0 | 0.00 | 0.00 | 0.00 | 1014.2 | |
| 20260830154022 | 79 | 169 | 2.0 | 0.0 | 0.00 | 0.00 | 0.00 | 1014.2 | |
| 20260830153523 | 79 | 195 | 3.0 | 3.0 | 0.00 | 0.00 | 0.00 | 1014.2 | |
| 20260830153023 | 79 | 194 | 4.0 | 5.0 | 0.00 | 0.00 | 0.00 | 1014.2 | |
| 20260830152521 | 78 | 246 | 3.0 | 3.0 | 0.00 | 0.00 | 0.00 | 1014.2 | |
| 20260830152023 | 78 | 211 | 4.0 | 7.0 | 0.00 | 0.00 | 0.00 | 1014.2 | |
| 20260830151522 | 78 | 211 | 4.0 | 6.0 | 0.00 | 0.00 | 0.00 | 1014.2 | |
| 20260830151022 | 77 | 150 | 4.0 | 0.0 | 0.00 | 0.00 | 0.00 | 1014.2 | |
| 20260830150523 | 76 | 171 | 0.0 | 0.0 | 0.00 | 0.00 | 0.00 | 1014.2 | |
| 20260830150024 | 76 | 211 | 2.0 | 4.0 | 0.00 | 0.00 | 0.00 | 1014.2 | |
| 20260830145522 | 75 | 197 | 4.0 | 4.0 | 0.00 | 0.00 | 0.00 | 1014.2 | |
| 20260830145023 | 75 | 213 | 4.0 | 5.0 | 0.00 | 0.00 | 0.00 | 1014.2 | |
| 20260830144531 | 75 | 229 | 3.0 | 0.0 | 0.00 | 0.00 | 0.00 | 1014.2 | |
| 20260830144044 | 74 | 219 | 4.0 | 3.0 | 0.00 | 0.00 | 0.00 | 1014.2 | |
| 20260830143527 | 74 | 200 | 4.0 | 3.0 | 0.00 | 0.00 | 0.00 | 1014.2 | |
| 20260830143034 | 73 | 165 | 4.0 | 4.0 | 0.00 | 0.00 | 0.00 | 1014.2 | |
| 20260830142527 | 72 | 184 | 3.0 | 0.0 | 0.00 | 0.00 | 0.00 | 1014.2 | |
| 20260830142023 | 72 | 173 | 3.0 | 6.0 | 0.00 | 0.00 | 0.00 | 1014.2 | |
| 20260830141525 | 71 | 189 | 3.0 | 0.0 | 0.00 | 0.00 | 0.00 | 1014.2 | |
| 20260830141028 | 71 | 165 | 5.0 | 3.0 | 0.00 | 0.00 | 0.00 | 1014.2 | |
| 20260830140523 | 70 | 207 | 2.0 | 3.0 | 0.00 | 0.00 | 0.00 | 1015.2 | |
| 20260830140028 | 69 | 213 | 0.0 | 3.0 | 0.00 | 0.00 | 0.00 | 1015.2 | |
| 20260830135522 | 69 | 228 | 3.0 | 3.0 | 0.00 | 0.00 | 0.00 | 1015.2 | |
| 20260830135022 | 69 | 231 | 4.0 | 3.0 | 0.00 | 0.00 | 0.00 | 1015.2 | |
| 20260830134543 | 69 | 211 | 2.0 | 0.0 | 0.00 | 0.00 | 0.00 | 1015.2 | |
| 20260830134025 | 68 | 185 | 0.0 | 0.0 | 0.00 | 0.00 | 0.00 | 1015.2 | |
| 20260830133524 | 68 | 200 | 0.0 | 0.0 | 0.00 | 0.00 | 0.00 | 1015.2 | |
| 20260830133022 | 68 | 237 | 3.0 | 0.0 | 0.00 | 0.00 | 0.00 | 1015.2 | |
| 20260830132529 | 68 | 196 | 3.0 | 4.0 | 0.00 | 0.00 | 0.00 | 1015.2 | |
| 20260830132027 | 68 | 215 | 0.0 | 0.0 | 0.00 | 0.00 | 0.00 | 1015.2 | |
| 20260830131522 | 68 | 230 | 0.0 | 3.0 | 0.00 | 0.00 | 0.00 | 1015.2 | |
| 20260830131021 | 68 | 175 | 0.0 | 3.0 | 0.00 | 0.00 | 0.00 | 1015.2 | |
| 20260830130523 | 68 | 226 | 5.0 | 3.0 | 0.00 | 0.00 | 0.00 | 1015.2 | |
| 20260830130029 | 68 | 157 | 4.0 | 4.0 | 0.00 | 0.00 | 0.00 | 1015.2 | |
| 20260830125522 | 68 | 216 | 4.0 | 0.0 | 0.00 | 0.00 | 0.00 | 1015.2 | |
| 20260830125022 | 68 | 203 | 3.0 | 4.0 | 0.00 | 0.00 | 0.00 | 1015.2 | |
| 20260830124522 | 68 | 222 | 3.0 | 4.0 | 0.00 | 0.00 | 0.00 | 1015.2 | |
| 20260830124023 | 68 | 218 | 4.0 | 3.0 | 0.00 | 0.00 | 0.00 | 1015.2 | |
| 20260830123523 | 68 | 198 | 4.0 | 2.0 | 0.00 | 0.00 | 0.00 | 1016.2 | |
| 20260830123024 | 68 | 223 | 0.0 | 5.0 | 0.00 | 0.00 | 0.00 | 1016.2 | |
| 20260830122522 | 68 | 219 | 0.0 | 0.0 | 0.00 | 0.00 | 0.00 | 1016.2 | |
| 20260830122022 | 68 | 229 | 3.0 | 3.0 | 0.00 | 0.00 | 0.00 | 1016.2 | |
| 20260830121523 | 69 | 211 | 0.0 | 3.0 | 0.00 | 0.00 | 0.00 | 1016.2 | |
| 20260830121042 | 69 | 186 | 3.0 | 3.0 | 0.00 | 0.00 | 0.00 | 1016.2 | |
| 20260830120522 | 69 | 255 | 4.0 | 5.0 | 0.00 | 0.00 | 0.00 | 1015.2 | |
| 20260830120023 | 69 | 227 | 5.0 | 5.0 | 0.00 | 0.00 | 0.00 | 1015.2 | |
| 20260830115522 | 69 | 218 | 4.0 | 2.0 | 0.00 | 0.00 | 0.00 | 1015.2 | |
| 20260830115023 | 69 | 184 | 4.0 | 3.0 | 0.00 | 0.00 | 0.00 | 1015.2 | |
| 20260830114543 | 69 | 216 | 4.0 | 0.0 | 0.00 | 0.00 | 0.00 | 1015.2 | |
| 20260830114023 | 69 | 198 | 0.0 | 0.0 | 0.00 | 0.00 | 0.00 | 1015.2 | |
| 20260830113523 | 69 | 203 | 0.0 | 2.0 | 0.00 | 0.00 | 0.00 | 1015.2 | |
| 20260830113022 | 69 | 252 | 2.0 | 6.0 | 0.00 | 0.00 | 0.00 | 1015.2 | |
| 20260830112523 | 69 | 218 | 0.0 | 0.0 | 0.00 | 0.00 | 0.00 | 1015.2 | |
| 20260830112022 | 69 | 194 | 2.0 | 4.0 | 0.00 | 0.00 | 0.00 | 1015.2 | |
| 20260830111531 | 69 | 225 | 2.0 | 4.0 | 0.00 | 0.00 | 0.00 | 1015.2 | |
| 20260830111022 | 69 | 216 | 0.0 | 4.0 | 0.00 | 0.00 | 0.00 | 1015.2 | |
| 20260830110529 | 69 | 190 | 3.0 | 5.0 | 0.00 | 0.00 | 0.00 | 1015.2 | |
| 20260830110023 | 69 | 189 | 3.0 | 5.0 | 0.00 | 0.00 | 0.00 | 1015.2 | |
| 20260830105524 | 70 | 185 | 3.0 | 2.0 | 0.00 | 0.00 | 0.00 | 1015.2 | |
| 20260830105022 | 70 | 205 | 4.0 | 0.0 | 0.00 | 0.00 | 0.00 | 1015.2 | |
| 20260830104525 | 71 | 118 | 5.0 | 3.0 | 0.00 | 0.00 | 0.00 | 1015.2 | |
| 20260830104022 | 71 | 184 | 4.0 | 6.0 | 0.00 | 0.00 | 0.00 | 1015.2 | |
| 20260830103523 | 71 | 249 | 2.0 | 5.0 | 0.00 | 0.00 | 0.00 | 1014.2 | |
| 20260830103032 | 71 | 208 | 3.0 | 3.0 | 0.00 | 0.00 | 0.00 | 1014.2 | |
| 20260830102535 | 71 | 173 | 0.0 | 6.0 | 0.00 | 0.00 | 0.00 | 1014.2 | |
| 20260830102023 | 71 | 194 | 0.0 | 3.0 | 0.00 | 0.00 | 0.00 | 1014.2 | |
| 20260830101530 | 71 | 165 | 4.0 | 3.0 | 0.00 | 0.00 | 0.00 | 1014.2 | |
| 20260830101022 | 71 | 240 | 3.0 | 3.0 | 0.00 | 0.00 | 0.00 | 1014.2 | |
| 20260830100522 | 71 | 206 | 3.0 | 4.0 | 0.00 | 0.00 | 0.00 | 1014.2 | |
| 20260830100023 | 71 | 169 | 3.0 | 4.0 | 0.00 | 0.00 | 0.00 | 1014.2 | |
| 20260830095522 | 71 | 111 | 0.0 | 2.0 | 0.00 | 0.00 | 0.00 | 1014.2 | |
| 20260830095024 | 71 | 230 | 2.0 | 4.0 | 0.00 | 0.00 | 0.00 | 1014.2 | |
| 20260830094527 | 71 | 194 | 2.0 | 4.0 | 0.00 | 0.00 | 0.00 | 1014.2 | |
| 20260830094045 | 71 | 189 | 0.0 | 0.0 | 0.00 | 0.00 | 0.00 | 1014.2 | |
| 20260830093523 | 71 | 195 | 0.0 | 5.0 | 0.00 | 0.00 | 0.00 | 1014.2 | |
| 20260830093022 | 71 | 177 | 3.0 | 5.0 | 0.00 | 0.00 | 0.00 | 1014.2 | |
| 20260830092523 | 71 | 173 | 2.0 | 3.0 | 0.00 | 0.00 | 0.00 | 1014.2 | |
| 20260830092043 | 71 | 218 | 0.0 | 0.0 | 0.00 | 0.00 | 0.00 | 1014.2 | |
| 20260830091522 | 71 | 218 | 2.0 | 4.0 | 0.00 | 0.00 | 0.00 | 1014.2 | |
| 20260830091021 | 71 | 202 | 0.0 | 5.0 | 0.00 | 0.00 | 0.00 | 1014.2 | |
| 20260830090543 | 71 | 219 | 4.0 | 6.0 | 0.00 | 0.00 | 0.00 | 1014.2 | |
| 20260830090025 | 71 | 217 | 0.0 | 3.0 | 0.00 | 0.00 | 0.00 | 1014.2 | |
| 20260830085543 | 71 | 197 | 0.0 | 0.0 | 0.00 | 0.00 | 0.00 | 1014.2 | |
| 20260830085022 | 71 | 162 | 0.0 | 4.0 | 0.00 | 0.00 | 0.00 | 1014.2 | |
| 20260830084523 | 71 | 209 | 0.0 | 4.0 | 0.00 | 0.00 | 0.00 | 1014.2 | |
| 20260830084022 | 71 | 179 | 3.0 | 4.0 | 0.00 | 0.00 | 0.00 | 1014.2 | |
| 20260830083543 | 71 | 239 | 3.0 | 4.0 | 0.00 | 0.00 | 0.00 | 1014.2 | |
| 20260830083023 | 71 | 170 | 3.0 | 4.0 | 0.00 | 0.00 | 0.00 | 1014.2 | |
| 20260830082544 | 71 | 173 | 3.0 | 6.0 | 0.00 | 0.00 | 0.00 | 1014.2 | |
| 20260830082022 | 71 | 177 | 0.0 | 4.0 | 0.00 | 0.00 | 0.00 | 1015.2 | |
| 20260830081521 | 71 | 179 | 0.0 | 0.0 | 0.00 | 0.00 | 0.00 | 1015.2 | |
| 20260830081023 | 71 | 201 | 0.0 | 3.0 | 0.00 | 0.00 | 0.00 | 1015.2 | |
| 20260830080523 | 71 | 181 | 2.0 | 4.0 | 0.00 | 0.00 | 0.00 | 1015.2 | |
| 20260830080024 | 71 | 170 | 3.0 | 3.0 | 0.00 | 0.00 | 0.00 | 1015.2 | |
| 20260830075522 | 71 | 205 | 0.0 | 0.0 | 0.00 | 0.00 | 0.00 | 1015.2 | |
| 20260830075043 | 71 | 176 | 4.0 | 4.0 | 0.00 | 0.00 | 0.00 | 1015.2 | |
| 20260830074522 | 71 | 162 | 0.0 | 0.0 | 0.00 | 0.00 | 0.00 | 1015.2 | |
| 20260830074022 | 71 | 219 | 0.0 | 0.0 | 0.00 | 0.00 | 0.00 | 1015.2 | |
| 20260830073529 | 71 | 220 | 4.0 | 6.0 | 0.00 | 0.00 | 0.00 | 1015.2 |